Content
SEND FEEDBACK

Daily
Averages
Monthly
Summary
United States of America

CAPUTA, SOUTH DAKOTA


Home > North America > United States > South Dakota
Elevation: 3149 feet     Latitude: 44 03N     Longitude: 103 04W

WEATHER
 
SELECT A DAY
Number of Records: 200,530;   Date Range: 1/1/95 - 9/18/14
 
SHARE

PRINT THIS DATA

[ ← Previous Day ]
WEATHER ALMANAC - FEBRUARY 25, 2013
[ Next Day → ]
[ °C ]   °F
Weather ElementAverageHighLow
Temperature29.2 °F48.9 °F (1:52 pm)10.9 °F (6:52 am)
Dewpoint11.8 °F18 °F (10:52 am)1.9 °F (2:52 pm)
Humidity54.5 %80 % (4:52 am)15 % (2:52 pm)
Barometer30.00 in30.16 in (1:52 am)29.88 in (2:52 pm)
Wind Speed8.9 mph20.7 mph (1:52 pm)
Wind Gust29.9 mph (3:52 pm)
Weather ElementAverage
Visibility10 mi
Wind DirectionSSE (159.1 °)

Weather ElementTotal
Precipitation---
Heating Degree Days35.1 (Base 65)
Averaged from 23 records on February 25, 2013
WEATHER CONDITIONS BREAKOUT
WIND DIRECTION BREAKOUT
WEATHER BY HOUR - FEBRUARY 25, 2013
[ °C ]   °F
Local TimeTemperatureDewpointHumidityBarometerVisibilityWind DirectionWind SpeedGust SpeedPrecipitationEventsConditions
1:52 AM21.9 °F14.0 °F72 %30.16 in10.0 miWNW (290°)8.1 mphClear
2:52 AM19.4 °F12.2 °F74 %30.04 in10.0 miWest (280°)6.9 mphClear
3:52 AM16.0 °F10.0 °F77 %30.15 in10.0 miWNW (290°)3.5 mphClear
4:52 AM12.0 °F7.0 °F80 %30.16 in10.0 miWNW (300°)4.6 mphClear
5:52 AM12.0 °F6.1 °F77 %30.15 in10.0 miWNW (300°)5.8 mphClear
6:52 AM10.9 °F5.0 °F77 %30.16 in10.0 miCalmClear
7:52 AM21.9 °F14.0 °F72 %30.13 in10.0 miCalmClear
8:52 AM25.0 °F17.1 °F72 %30.12 in10.0 miSE (140°)4.6 mphClear
9:52 AM32.0 °F16.0 °F52 %30.08 in10.0 miSE (140°)5.8 mphClear
10:52 AM36.0 °F18.0 °F48 %30.04 in10.0 miSE (140°)10.4 mphClear
11:52 AM43.0 °F16.0 °F34 %30.00 in10.0 miSSE (160°)15.0 mphClear
12:52 PM46.9 °F10.9 °F23 %29.94 in10.0 miSSE (160°)17.3 mph23.0 mphClear
1:52 PM48.9 °F7.0 °F18 %29.91 in10.0 miSouth (170°)20.7 mph25.3 mphClear
2:52 PM48.9 °F1.9 °F15 %29.88 in10.0 miSSE (160°)20.7 mph27.6 mphClear
3:52 PM46.0 °F10.0 °F23 %29.88 in10.0 miSSE (160°)19.6 mph29.9 mphClear
4:52 PM42.1 °F12.0 °F29 %29.89 in10.0 miSouth (170°)20.7 mphClear
5:52 PM36.0 °F14.0 °F41 %29.91 in10.0 miSouth (170°)13.8 mphClear
6:52 PM33.1 °F15.1 °F48 %29.92 in10.0 miSouth (190°)10.4 mphClear
7:52 PM30.9 °F14.0 °F50 %29.89 in10.0 miSouth (190°)8.1 mphClear
8:52 PM26.1 °F12.9 °F58 %29.90 in10.0 miSE (140°)4.6 mphClear
9:52 PM21.9 °F12.9 °F68 %29.90 in10.0 miESE (110°)3.5 mphClear
10:52 PM23.0 °F14.0 °F68 %29.88 in10.0 miCalmClear
11:52 PM17.1 °F10.9 °F77 %29.88 in10.0 miCalmClear
Hourly data recorded from KRAP, located miles away from Caputa, South Dakota







STORIES FROM OUR PARTNERS